Tracking 28915 objects as of 29-May-2024
HD Live streaming from Space Station
objects crossing your sky now

COSMOS 482 DESCENT CRAFT

Track COSMOS 482 DESCENT CRAFT now!
10-day predictions
COSMOS 482 DESCENT CRAFT is classified as:


NORAD ID: 6073
Int'l Code: 1972-023E
Perigee: 194.2 km
Apogee: 1,207.6 km
Inclination: 52.0 °
Period: 98.6 minutes
Semi major axis: 7071 km
RCS: 0.7153 m2 (medium)
Launch date: March 31, 1972
Source: Commonwealth of Independent States (former USSR) (CIS)
Launch site: TYURATAM MISSILE AND SPACE COMPLEX (TTMTR)
Your satellite tracking list
Your tracking list is empty




NASA's NSSDC Master Catalog

Two Line Element Set (TLE):
1  6073U 72023E   24150.17340993  .00117763  82894-5  20781-3 0  9990
2  6073  51.9972  67.0469 0716518   1.9560 358.3944 14.59815231698853
Source of the keplerian elements: AFSPC